Tacoma Narrows, WA

7:49 PM PDT on October 19, 2017 (GMT -0700)
Tacoma Narrows

Weather History for KTIW - January, 2013

Change the Weather History Date:

Tuesday, January 22, 2013

  Actual Average Record
Temperature  
Mean Temperature 34 °F -  
Max Temperature 39 °F 45 °F 55 °F (2016)
Min Temperature 32 °F 37 °F 26 °F (2008)
Degree Days  
Heating Degree Days 30    
Moisture  
Dew Point 32 °F    
Average Humidity 90    
Maximum Humidity 96    
Minimum Humidity 79    
Precipitation  
Precipitation 0.00 in - - ()
Sea Level Pressure  
Sea Level Pressure 30.06 in    
Wind  
Wind Speed 0 mph (West)    
Max Wind Speed 4 mph    
Max Gust Speed -    
Visibility 3 miles    
Events Fog    
Averages and records for this station are not official NWS values.
T = Trace of Precipitation, MM = Missing Value Source: NWS Daily Summary

Daily Weather History Graph

Daily Weather History Graph

Search for Another Location

Airport or City:

Trip Planner

Search our weather history database for the weather conditions in past years. The results will help you decide how hot, cold, wet, or windy it might be!

Date:

Astronomy

Jan. 22, 2013 Rise Set
Actual Time 7:46 AM PST 4:57 PM PST
Civil Twilight 7:12 AM PST 5:31 PM PST
Nautical Twilight 6:35 AM PST 6:09 PM PST
Astronomical Twilight 5:59 AM PST 6:45 PM PST
Moon 1:21 PM PST (1/22) 4:15 AM PST (1/22)
Length of Visible Light 10h 18m
Length of Day
9h 11m
Waxing Gibbous, 83% of the Moon is Illuminated
Jan 22
Waxing Gibbous
Jan 26
Full
Feb 3
Last Quarter
Feb 9
New
Feb 17
First Quarter

Hourly Weather History & Observations

Time (PST) Temp. Windchill Dew Point Humidity Pressure Visibility Wind Dir Wind Speed Gust Speed Precip Events Conditions
12:00 AM 33.8 °F - 30.2 °F 87% 30.13 in 2.5 mi Calm Calm - N/A   Overcast
12:17 AM 33.8 °F - 30.2 °F 87% 30.13 in 4.0 mi Calm Calm - N/A   Overcast
12:53 AM 33.1 °F - 30.9 °F 92% 30.15 in 4.0 mi Calm Calm - N/A   Overcast
1:30 AM 33.8 °F - 32.0 °F 93% 30.13 in 2.5 mi Calm Calm - N/A   Overcast
1:53 AM 33.1 °F - 30.9 °F 92% 30.14 in 4.0 mi Calm Calm - N/A   Overcast
2:53 AM 33.1 °F - 30.9 °F 92% 30.14 in 5.0 mi Calm Calm - N/A   Overcast
3:53 AM 33.1 °F - 30.9 °F 92% 30.13 in 4.0 mi Calm Calm - N/A   Overcast
3:59 AM 32.0 °F - 30.2 °F 93% 30.12 in 1.8 mi Calm Calm - N/A   Overcast
4:14 AM 33.8 °F - 30.2 °F 87% 30.11 in 3.0 mi Calm Calm - N/A   Overcast
4:28 AM 33.8 °F - 30.2 °F 87% 30.10 in 1.8 mi Calm Calm - N/A   Overcast
4:38 AM 33.8 °F 30.8 °F 30.2 °F 87% 30.10 in 0.5 mi NE 3.5 mph - N/A Fog Fog
4:48 AM 33.8 °F - 30.2 °F 87% 30.10 in 0.2 mi Calm Calm - N/A Fog Fog
4:53 AM 32.0 °F 28.7 °F 30.9 °F 96% 30.11 in 0.2 mi NE 3.5 mph - N/A Fog Fog
5:53 AM 32.0 °F - 30.0 °F 92% 30.11 in 0.2 mi Calm Calm - N/A Fog Fog
6:53 AM 32.0 °F - 30.9 °F 96% 30.10 in 0.2 mi Calm Calm - N/A Fog Fog
7:53 AM 33.1 °F - 30.9 °F 92% 30.09 in 0.2 mi Calm Calm - N/A Fog Fog
8:53 AM 33.1 °F - 32.0 °F 96% 30.09 in 0.2 mi Calm Calm - N/A Fog Fog
9:46 AM 33.8 °F - 32.0 °F 93% 30.07 in 0.2 mi Calm Calm - N/A Fog Fog
9:53 AM 34.0 °F - 32.0 °F 92% 30.09 in 0.2 mi Calm Calm - N/A Fog Fog
10:32 AM 33.8 °F - 32.0 °F 93% 30.07 in 1.0 mi Calm Calm - N/A   Mist
10:53 AM 34.0 °F - 32.0 °F 92% 30.09 in 0.8 mi Calm Calm - N/A   Overcast
11:53 AM 35.1 °F 32.2 °F 32.0 °F 89% 30.07 in 0.8 mi WSW 3.5 mph - N/A   Overcast
12:00 PM 33.8 °F - 32.0 °F 93% 30.05 in 2.5 mi Calm Calm - N/A   Overcast
12:53 PM 36.0 °F - 32.0 °F 86% 30.05 in 2.5 mi Calm Calm - N/A   Mostly Cloudy
12:58 PM 35.6 °F - 32.0 °F 87% 30.04 in 8.0 mi Calm Calm - N/A   Scattered Clouds
1:53 PM 37.0 °F - 33.1 °F 86% 30.02 in 7.0 mi Calm Calm - N/A   Scattered Clouds
2:53 PM 37.9 °F - 33.1 °F 83% 30.01 in 8.0 mi Calm Calm - N/A   Scattered Clouds
3:53 PM 37.9 °F - 34.0 °F 86% 29.99 in 6.0 mi Calm Calm - N/A   Scattered Clouds
4:53 PM 37.9 °F - 34.0 °F 86% 29.99 in 5.0 mi Calm Calm - N/A   Partly Cloudy
5:53 PM 37.9 °F - 34.0 °F 86% 29.98 in 7.0 mi Calm Calm - N/A   Clear
6:53 PM 37.0 °F - 34.0 °F 89% 29.96 in 7.0 mi Calm Calm - N/A   Clear
7:53 PM 37.0 °F - 34.0 °F 89% 29.94 in 7.0 mi Calm Calm - N/A   Clear
8:53 PM 37.9 °F 35.5 °F 35.1 °F 89% 29.94 in 5.0 mi West 3.5 mph - N/A   Clear
9:53 PM 37.9 °F - 35.1 °F 89% 29.93 in 6.0 mi Calm Calm - N/A   Overcast
10:53 PM 37.9 °F 35.5 °F 35.1 °F 89% 29.94 in 5.0 mi South 3.5 mph - N/A   Mostly Cloudy
11:53 PM 39.0 °F - 33.1 °F 79% 29.94 in 10.0 mi Calm Calm - N/A   Mostly Cloudy